Wind_Speed
20 22 23 24 24 24 24 25 26 27 27 25 23 21 19 18 19 21 21 20 20 20 21 21 22 22 21 19 17 16 16 15 14 13 12 11 12 13 15 16 18 19 19 20 20 20 20 19 19 19 18 19 19 19 20 20 21 22 22 23 23 23 23 23 24 24 24 24 24
16 17 19 20 22 24 25 25 24 23 22 20 18 17 17 17 18 19 20 19 18 18 17 17 17 18 19 18 17 16 16 15 15 14 14 14 15 16 18 19 20 21 22 22 21 21 20 20 19 19 19 19 20 21 21 22 22 23 23 23 22 22 22 22 22 22 22 22 23
13 14 16 18 21 24 25 25 22 18 15 14 13 14 14 15 15 16 16 16 14 12 11 11 12 15 16 16 16 16 17 17 16 16 16 17 17 18 19 19 20 20 20 19 19 19 18 18 18 18 19 19 20 20 21 21 21 21 21 20 20 20 20 20 20 20 21 21 21
10 11 13 15 18 20 21 19 16 13 10 10 10 11 12 12 12 13 13 13 11 10 10 11 12 14 15 15 16 16 16 16 15 14 13 14 14 14 14 14 14 14 14 14 15 15 15 15 15 16 16 16 17 18 18 18 18 18 18 18 18 18 19 19 19 19 20 20 21
11 10 11 12 14 15 15 14 13 11 10 10 10 11 11 11 12 12 13 13 12 11 12 12 14 14 15 15 14 13 12 11 10 9 8 8 8 8 9 9 10 10 11 11 12 12 13 13 13 13 14 14 15 16 16 16 16 16 17 17 17 18 18 19 19 19 20 20 20
14 13 12 12 13 14 15 16 15 15 14 13 13 13 13 13 13 13 13 12 12 11 11 12 12 12 10 9 8 7 6 6 6 6 6 6 6 7 7 8 8 9 9 10 10 11 11 12 12 13 13 14 15 16 16 16 17 17 17 18 18 18 18 19 19 19 19 20 20
18 18 17 16 15 15 16 17 18 17 17 16 15 15 15 15 15 15 14 13 12 10 9 8 7 6 5 5 4 4 5 5 5 5 5 6 6 7 7 8 8 9 10 10 11 11 12 12 13 14 14 15 16 16 17 17 18 18 19 19 19 19 19 19 19 20 20 20 21
20 19 17 16 15 14 15 16 16 16 16 17 17 17 17 17 17 16 14 13 11 9 7 6 6 5 4 4 4 4 4 4 4 5 5 6 7 7 8 9 9 10 11 11 12 13 13 14 14 15 16 16 17 17 18 18 19 20 20 20 20 20 20 20 21 21 21 22 22
20 18 15 14 14 14 14 14 14 15 16 16 16 15 14 14 13 12 11 10 9 8 7 6 6 5 5 4 4 4 4 5 5 6 7 8 8 9 9 10 11 11 12 13 13 14 15 15 16 16 17 17 18 19 19 19 20 20 21 21 22 22 22 22 22 23 23 24 24
23 21 20 19 19 18 17 17 17 16 16 15 14 12 12 11 10 10 9 9 8 8 8 7 7 6 6 6 6 6 6 7 7 8 8 8 9 10 10 11 12 13 13 14 15 15 16 16 17 17 18 18 19 19 20 20 21 21 22 22 23 23 23 23 23 24 24 25 25
23 22 22 21 20 18 17 17 16 15 15 14 13 12 11 11 10 10 9 9 9 9 9 8 8 7 7 7 6 7 7 7 8 8 9 9 10 11 12 12 13 14 14 15 15 16 16 17 17 18 18 19 19 20 20 21 21 21 22 22 23 23 23 23 23 24 24 25 25
19 19 19 18 17 16 15 15 15 15 14 14 13 12 11 11 10 10 9 9 8 8 7 7 6 6 6 6 6 6 7 8 8 9 10 11 11 12 13 13 14 14 15 15 15 16 16 17 17 18 18 19 19 20 20 20 21 21 22 22 22 23 23 23 23 23 24 24 25
19 19 19 18 17 16 16 15 15 14 14 13 13 12 11 10 9 9 8 7 6 6 5 5 5 5 5 6 7 7 8 9 10 10 11 12 12 12 13 13 14 14 14 15 15 16 16 17 17 17 18 18 19 19 20 20 21 21 21 22 22 22 23 23 23 24 24 25 25
20 20 19 18 17 16 15 15 15 14 13 13 12 11 10 9 8 7 6 6 5 5 5 5 5 6 6 7 8 8 9 10 10 11 11 12 12 12 12 13 13 13 14 14 15 15 16 16 16 17 17 18 18 19 19 20 20 21 21 22 22 23 23 23 24 24 25 25 26
20 19 18 17 16 15 14 13 13 12 11 10 9 8 7 7 6 5 5 5 5 5 5 6 6 6 7 7 8 8 9 9 9 10 10 10 11 11 11 12 12 12 13 13 14 15 15 15 16 16 17 17 18 18 19 20 20 21 21 22 22 23 23 24 24 25 25 25 26
18 17 15 14 13 12 11 10 10 9 8 8 7 6 6 5 5 4 4 4 4 4 4 5 5 5 6 6 6 6 7 7 7 8 8 9 9 9 10 10 11 11 12 13 13 14 15 15 16 16 17 17 18 19 19 20 20 21 21 22 22 23 23 24 24 25 25 26 26
15 14 13 12 10 10 9 8 8 7 7 6 6 5 4 4 3 3 3 2 2 2 2 2 3 3 3 4 4 5 5 6 6 7 7 8 8 9 10 10 11 12 12 13 14 14 15 16 16 17 17 18 19 19 20 20 21 21 22 22 22 23 23 24 24 25 25 26 26
12 12 11 10 9 8 7 7 6 6 6 5 4 4 3 3 2 2 1 1 1 2 2 2 3 3 4 4 5 5 6 6 7 7 8 9 9 10 11 11 12 13 13 14 15 16 16 17 18 18 19 19 20 20 21 21 22 22 22 23 23 23 24 24 24 25 25 26 26
10 10 9 8 7 7 6 6 6 6 5 5 5 5 5 5 5 5 5 5 5 5 5 5 6 6 6 6 6 7 7 8 8 9 9 10 11 11 12 13 13 14 15 16 16 17 18 18 19 20 20 21 21 22 22 23 23 23 24 24 24 24 25 25 25 25 26 26 26
9 8 8 7 7 7 7 7 7 7 8 8 8 8 8 8 7 7 7 7 7 7 7 7 7 7 7 7 8 8 8 9 9 10 11 11 12 13 13 14 15 15 16 17 18 18 19 20 20 21 22 22 23 23 24 24 24 25 25 25 25 25 26 26 26 26 26 27 27
9 9 9 9 9 9 10 10 10 10 10 10 10 10 9 9 8 8 8 8 8 8 8 7 8 8 8 8 8 9 10 10 11 11 12 13 13 14 14 15 16 17 17 18 19 19 20 21 21 22 23 23 24 24 25 25 25 25 26 26 26 26 26 26 27 27 27 27 27
12 12 12 12 12 12 12 12 12 12 11 11 10 10 9 9 8 8 8 8 8 8 7 7 8 8 8 9 9 10 11 11 12 12 13 14 14 15 16 16 17 18 18 19 20 20 21 22 22 23 23 24 24 24 25 25 25 25 26 26 26 26 26 26 26 26 26 27 27
14 14 14 14 14 14 14 13 12 12 11 11 10 10 9 9 8 8 8 8 8 8 8 8 8 9 9 10 10 11 12 12 13 13 14 15 15 16 17 17 18 18 19 20 20 21 21 22 22 23 23 23 24 24 24 25 25 25 25 25 26 25 25 25 25 25 25 25 26
16 15 15 15 14 14 13 13 12 11 10 10 9 9 8 8 8 8 8 8 8 8 8 9 9 10 10 11 12 12 13 13 14 14 15 15 16 17 17 18 18 19 19 20 20 21 21 22 22 23 23 23 24 24 24 25 25 26 26 26 27 27 27 26 26 26 26 26 26
15 15 14 14 13 12 12 11 10 9 9 9 8 8 8 8 7 7 8 8 8 9 9 10 10 11 12 13 13 14 14 15 15 15 16 16 17 17 18 18 18 19 19 20 20 21 21 22 23 23 24 24 25 25 26 26 27 27 27 28 28 29 29 29 29 28 28 28 28
13 13 12 12 11 10 9 9 8 8 8 8 7 7 7 7 7 8 8 8 9 10 10 11 12 12 13 14 14 15 15 16 16 17 17 17 18 18 18 19 19 20 20 21 21 21 22 23 23 24 25 26 26 27 28 28 28 28 29 29 30 30 30 31 31 31 30 30 30
12 11 10 10 9 8 8 7 7 7 6 6 6 6 7 7 8 8 9 9 10 11 12 12 13 13 14 15 15 16 16 17 17 18 18 19 19 20 20 20 21 21 22 22 22 23 23 24 24 25 26 27 27 28 29 29 29 29 29 30 30 30 31 31 31 32 32 32 31
10 9 8 8 7 6 6 5 5 5 5 5 6 6 7 8 8 9 10 10 11 12 13 13 14 15 15 16 16 17 18 18 19 19 20 20 21 21 21 22 22 23 23 23 23 24 24 24 25 25 26 27 28 28 29 29 30 30 30 30 30 30 30 31 31 32 32 32 32
8 7 7 6 5 5 5 5 5 5 6 6 7 8 8 9 10 10 11 12 13 13 14 15 16 16 17 17 18 19 19 20 20 21 21 21 21 21 22 22 23 23 23 23 24 24 24 25 25 25 26 27 28 29 29 30 30 30 30 30 30 30 30 31 31 32 32 32 32
7 6 5 5 5 5 5 6 6 7 8 8 9 10 11 11 12 13 13 14 15 16 17 17 18 18 19 19 20 20 20 21 21 21 21 21 21 21 22 22 23 23 23 23 24 24 25 25 25 26 26 27 28 29 30 30 30 30 30 30 30 30 31 31 31 32 32 32 32
6 6 6 6 6 7 7 8 9 10 10 11 12 12 13 14 15 15 16 17 18 18 19 19 19 19 20 20 20 20 20 21 21 21 21 21 21 22 22 22 23 23 23 24 24 24 25 25 26 26 27 28 28 29 29 30 30 30 30 30 30 30 31 31 31 32 32 32 32
7 7 8 8 9 9 10 11 12 13 13 14 15 15 16 17 17 18 18 19 19 19 20 20 20 20 20 20 20 20 20 21 21 21 21 22 22 22 22 23 23 24 24 24 25 25 26 26 27 27 27 28 28 29 29 29 30 30 30 30 30 31 31 31 32 32 32 31 31
9 9 10 11 11 12 13 14 15 15 16 16 17 17 18 18 19 19 19 19 19 19 19 19 20 20 20 20 20 20 20 21 21 22 22 22 22 23 23 24 24 25 25 25 26 26 26 27 27 27 28 28 28 28 29 29 30 30 30 31 31 31 31 31 31 31 31 31 31
11 12 13 13 14 15 16 16 17 17 18 18 18 18 18 19 18 18 18 19 19 19 19 19 19 20 20 20 21 21 21 22 22 22 23 23 23 24 24 24 25 25 26 26 26 26 27 27 27 27 27 28 28 29 29 29 30 30 31 31 32 32 32 32 31 31 30 30 30
14 14 15 16 16 17 17 17 18 18 18 18 18 18 18 18 18 18 18 18 18 18 19 19 19 20 20 21 21 22 22 23 23 23 24 24 24 25 25 25 25 26 26 26 26 27 27 27 27 27 27 28 28 29 29 30 30 31 31 32 32 32 32 31 31 30 30 30 29
16 16 17 17 17 17 17 18 18 18 18 18 18 18 18 18 18 18 18 18 18 18 19 19 20 21 21 22 22 23 23 23 24 24 25 25 25 25 25 25 25 26 26 26 27 27 27 27 27 27 28 28 29 29 29 30 30 31 31 31 31 31 31 31 31 30 30 30 29
16 17 17 17 17 17 17 17 17 17 18 18 18 18 18 18 18 18 18 19 19 19 20 21 21 22 22 23 23 23 24 24 24 25 25 25 26 26 26 26 26 26 26 26 27 27 27 27 27 28 28 28 29 29 29 29 30 30 30 30 31 31 31 31 31 31 30 30 29
16 16 16 16 17 17 17 17 17 17 17 17 18 18 18 18 18 19 19 20 20 21 21 22 22 23 23 24 24 24 24 25 25 25 25 26 26 26 26 27 26 26 26 27 27 27 28 28 28 28 28 28 28 28 28 28 29 29 29 30 31 31 31 31 31 31 31 30 30
16 16 16 16 16 16 17 17 17 17 17 18 18 18 19 19 20 20 21 21 22 22 23 23 23 24 24 24 25 25 25 25 25 25 26 26 27 27 27 27 27 27 27 28 28 28 28 29 29 28 28 27 27 27 27 27 28 28 29 30 30 31 31 31 31 32 33 32 31
16 16 16 16 16 16 16 16 17 17 17 18 19 19 20 20 21 21 22 22 23 23 23 24 24 25 25 25 25 25 25 25 26 26 26 27 27 28 28 28 28 29 28 29 29 29 29 29 29 28 27 26 26 25 26 26 27 28 29 29 30 31 31 32 32 33 33 33 33
16 16 16 16 16 16 17 17 17 17 18 19 19 20 21 21 22 22 22 23 23 24 24 24 25 25 26 26 27 27 27 27 27 27 27 28 28 29 29 29 30 30 30 30 30 30 30 30 29 28 27 25 25 24 25 26 27 28 29 29 29 30 31 33 33 34 34 34 35
Wind_Direction
244 243 243 243 242 240 237 234 232 229 225 218 212 208 206 203 203 202 198 194 190 188 190 195 199 198 192 187 186 190 198 208 216 223 227 228 230 238 247 253 257 258 258 257 257 256 257 258 258 259 260 261 262 263 264 265 265 266 267 268 268 269 270 271 272 272 272 273 273
241 238 237 236 234 231 228 226 225 222 216 209 204 200 197 192 190 189 187 184 183 186 191 196 195 188 182 184 191 199 206 214 219 222 226 231 237 242 247 250 251 252 251 251 250 251 253 255 257 258 260 260 261 262 263 264 265 265 267 268 269 270 271 272 273 273 273 273 273
231 229 228 228 227 225 223 222 222 218 209 201 196 191 186 181 178 179 180 180 178 177 178 176 168 166 170 180 190 197 202 205 207 210 214 221 228 234 239 242 245 246 247 248 249 250 252 255 257 259 261 262 263 263 263 264 265 266 267 268 270 271 272 273 274 274 274 273 273
205 205 208 210 212 213 214 214 211 203 190 180 175 170 165 163 163 166 168 167 158 150 146 143 142 148 158 170 178 184 189 192 194 197 206 217 227 234 238 242 245 247 249 250 251 252 253 255 257 258 260 262 264 264 264 264 264 265 266 268 269 271 273 274 274 275 275 274 274
168 168 173 180 185 188 186 181 171 161 153 149 147 144 141 140 143 147 147 143 134 132 135 139 143 148 156 164 169 174 178 181 187 197 213 228 237 241 243 244 245 247 249 250 251 253 254 256 257 258 260 261 263 264 265 266 267 267 269 270 272 273 275 276 276 276 276 276 275
133 131 134 141 147 148 146 143 137 133 130 128 128 127 126 128 133 137 138 135 132 134 139 145 150 153 155 158 162 168 175 184 195 208 221 230 235 237 239 241 244 247 249 252 254 256 258 259 261 262 264 265 266 269 271 273 275 275 276 276 277 278 278 278 278 278 277 277 276
113 109 109 111 115 119 121 121 118 117 118 121 124 126 129 134 139 141 141 142 143 144 144 144 141 137 135 141 155 170 182 191 201 210 218 225 231 236 240 244 248 251 254 257 259 261 263 265 266 268 270 271 273 276 278 280 281 282 282 282 281 280 279 279 279 278 277 276 276
108 104 103 105 107 109 110 111 113 117 123 129 133 135 138 140 140 141 141 141 140 135 128 119 114 117 129 146 162 175 186 199 212 223 230 236 240 244 248 252 255 257 260 263 265 267 269 271 273 274 276 277 278 280 281 282 282 283 283 283 283 282 280 279 278 277 276 275 275
117 118 121 124 126 127 127 128 132 137 140 141 140 138 134 130 127 125 124 122 119 116 116 120 129 142 155 168 180 196 209 220 227 233 237 241 245 249 254 257 261 264 266 268 270 271 273 274 275 276 277 278 279 280 280 280 281 281 281 281 281 281 281 280 279 278 277 277 277
131 136 142 145 147 148 148 148 146 144 140 134 127 120 113 108 107 108 111 115 121 130 139 149 157 167 176 186 197 208 217 224 229 234 239 245 250 255 259 262 264 266 267 268 270 271 272 273 274 275 276 276 277 277 278 278 278 279 279 279 280 280 280 280 280 279 279 279 279
132 135 137 139 140 140 139 135 128 120 114 109 106 105 107 110 115 121 127 134 142 149 155 160 167 175 184 194 204 214 222 229 237 243 249 253 257 259 261 263 264 265 266 267 268 269 270 271 272 273 274 275 275 276 276 277 277 277 277 278 278 279 279 279 279 279 279 279 279
115 113 112 112 111 109 106 103 100 99 101 106 111 117 122 127 130 134 138 143 150 155 161 168 176 186 198 210 220 229 237 244 249 253 256 258 260 261 262 263 265 266 267 268 269 270 270 271 271 272 273 274 275 276 276 277 277 278 278 279 279 280 281 281 281 281 281 281 281
96 95 95 95 95 95 96 99 104 109 117 123 128 131 134 136 138 140 144 150 158 166 175 187 199 211 222 231 238 244 248 252 255 257 259 261 262 264 265 267 268 269 270 271 272 273 273 274 274 275 276 276 277 278 279 280 280 281 282 283 283 284 284 285 285 285 285 285 285
99 101 102 104 107 110 114 118 122 126 129 131 133 134 137 140 144 149 156 166 175 187 198 210 221 229 236 242 247 251 254 257 259 262 264 266 268 270 272 274 275 276 277 278 279 279 280 280 280 281 282 282 283 284 285 285 286 287 287 288 289 289 289 289 290 289 289 289 289
109 110 112 114 117 121 123 125 127 128 130 132 134 138 143 149 155 164 175 186 197 208 218 227 235 241 247 251 255 259 262 265 268 271 274 276 279 280 282 283 284 285 286 286 287 288 288 289 289 290 290 290 291 291 292 292 292 293 293 293 293 294 294 293 293 293 292 292 292
113 114 116 119 122 125 127 128 129 132 135 139 143 149 156 163 171 180 191 201 212 223 233 239 245 253 259 264 269 273 278 282 285 288 291 292 294 295 296 296 296 297 297 297 298 298 298 298 298 299 299 298 298 298 297 297 297 297 297 297 296 296 296 296 295 295 294 294 294
117 119 122 125 128 131 132 133 136 139 142 145 149 154 158 162 170 178 190 203 221 238 250 261 274 284 293 298 303 307 311 312 313 313 314 313 312 311 310 310 309 309 308 308 308 307 307 306 305 305 304 303 302 301 301 300 300 299 299 298 298 298 297 297 297 296 296 295 295
120 122 126 129 131 131 131 130 131 132 132 131 130 128 124 118 110 101 89 70 48 34 21 11 5 0 357 353 349 346 343 339 335 332 329 326 324 321 320 318 317 315 314 313 312 310 309 308 307 306 305 304 303 302 301 300 299 299 298 298 297 297 297 297 296 296 296 295 295
118 120 121 122 120 117 113 110 107 104 100 95 89 84 80 75 68 63 58 54 49 42 37 32 26 20 14 7 2 356 350 345 340 335 331 328 325 323 321 319 317 315 313 312 310 309 307 306 305 304 302 301 300 299 298 297 296 296 296 295 295 295 294 294 294 294 294 293 293
111 110 107 103 99 96 93 89 85 82 79 76 73 70 68 65 61 58 55 51 46 40 35 30 24 18 11 3 357 351 345 339 335 330 326 323 321 318 316 314 312 311 309 307 306 305 303 302 301 300 298 297 296 296 295 294 293 293 292 292 292 292 292 292 291 291 291 291 290
101 98 94 92 89 86 84 81 78 76 74 72 70 67 64 61 57 53 49 43 38 33 27 20 13 6 359 352 345 340 334 330 326 322 319 317 315 312 310 309 308 306 305 304 302 301 300 299 298 297 296 295 295 294 293 293 292 292 292 291 291 291 291 291 291 290 290 290 289
93 90 88 86 84 81 79 77 75 72 71 68 65 62 59 54 49 43 38 32 26 20 13 4 357 350 344 338 334 329 325 322 319 316 314 313 311 309 308 307 306 304 303 302 301 300 299 298 298 297 297 296 296 295 295 295 295 294 294 294 294 294 294 294 293 293 292 292 291
86 85 83 81 78 76 74 72 69 67 64 61 58 53 49 43 37 31 26 20 13 5 357 350 343 337 332 328 325 322 320 318 316 314 312 311 310 309 308 307 306 305 304 304 303 302 301 301 300 300 300 300 300 300 300 300 300 300 300 300 300 300 300 300 299 299 298 297 297
80 78 77 75 73 71 69 66 64 61 57 53 48 43 38 32 26 20 14 7 360 352 345 339 334 331 327 324 322 319 318 316 315 313 312 311 310 310 309 309 308 307 307 307 307 306 306 306 306 306 306 306 306 306 306 307 307 307 307 307 306 306 306 306 305 305 304 304 303
75 74 72 70 68 66 64 61 58 54 49 45 40 34 28 22 15 9 2 355 348 342 337 334 330 328 325 323 320 319 317 315 314 313 312 312 311 312 311 311 311 311 311 311 312 312 312 313 313 312 312 312 312 311 311 311 311 311 311 311 310 310 309 309 308 308 308 308 307
72 70 68 66 63 61 57 53 48 43 39 34 28 22 14 7 1 355 349 344 338 335 332 329 327 325 323 321 320 318 317 316 315 315 315 315 315 316 316 316 316 316 316 316 316 317 317 317 317 316 315 315 314 313 312 312 312 312 312 311 311 311 310 310 309 309 309 308 308
70 68 65 62 59 55 49 44 38 32 26 20 12 5 358 353 347 343 339 335 332 330 328 326 325 323 322 321 321 320 320 319 320 320 320 321 321 321 321 321 321 320 320 319 319 319 318 318 318 317 316 314 313 313 312 311 311 311 311 311 311 311 310 310 310 309 309 308 308
71 68 65 62 58 51 45 37 29 21 12 4 358 352 348 344 341 338 335 332 331 330 328 327 326 326 326 326 325 325 325 324 324 324 325 325 324 324 324 323 322 321 321 320 320 319 318 317 316 315 314 313 312 312 311 311 311 311 311 311 311 311 311 310 310 310 310 309 309
75 73 70 65 57 48 39 29 18 10 2 357 353 349 346 343 341 339 337 335 334 333 332 332 331 331 331 331 330 329 328 327 327 326 325 325 324 324 323 322 321 320 320 319 319 318 317 316 315 314 313 312 312 311 311 311 311 311 312 312 312 312 312 312 311 311 311 311 311
75 72 65 56 45 35 24 16 9 4 0 357 354 351 348 346 344 342 341 340 339 338 337 336 336 335 333 332 331 329 328 327 326 325 324 324 323 323 322 322 321 320 319 319 318 318 317 316 315 314 313 313 312 312 312 312 313 313 313 313 313 313 313 313 313 313 313 313 313
61 53 45 35 26 19 13 8 4 1 359 357 355 352 350 347 346 344 343 342 341 339 338 336 335 333 331 330 329 328 326 325 325 324 324 323 323 323 322 322 321 320 320 319 319 318 318 317 316 315 315 314 313 313 313 314 314 314 314 314 314 314 314 314 314 315 315 315 315
40 33 26 19 14 10 7 4 1 359 357 355 353 351 349 347 345 343 342 340 338 336 334 332 331 329 328 327 326 326 325 325 324 324 324 324 324 324 324 323 322 322 321 321 320 320 319 318 318 317 316 315 315 314 314 314 314 314 314 315 315 315 316 316 317 317 318 318 318
24 19 15 10 7 5 3 1 359 357 354 352 349 347 345 343 341 339 337 336 334 332 330 329 327 327 326 325 325 325 325 325 325 325 325 325 325 325 325 325 324 323 322 322 321 321 320 320 319 318 317 316 316 315 315 314 314 314 315 315 316 316 317 318 319 319 319 319 319
15 11 8 5 3 0 358 356 353 351 349 346 343 340 338 337 335 333 332 331 331 329 329 328 327 327 327 326 326 326 326 326 326 326 326 326 326 326 326 326 325 324 323 323 322 322 321 321 320 319 318 317 316 315 315 314 314 315 315 316 317 318 319 320 320 320 320 319 318
9 6 3 0 358 355 352 349 346 343 341 338 336 334 333 332 331 330 330 329 329 329 329 328 328 328 328 328 328 328 327 327 327 326 326 326 326 326 326 326 325 324 323 322 322 321 321 320 320 318 317 316 315 315 315 315 315 316 317 318 318 319 320 320 320 319 318 318 317
3 0 357 354 350 347 344 341 338 336 333 332 331 330 330 330 330 330 330 330 329 329 329 328 328 328 328 328 328 328 328 327 327 327 326 326 325 325 325 324 324 322 322 321 321 320 320 319 319 318 317 316 316 316 316 317 317 318 318 318 319 319 319 319 318 317 317 316 316
356 352 349 346 342 339 336 334 332 331 330 329 329 329 329 330 330 330 330 330 330 329 329 329 329 329 329 329 328 328 327 327 326 326 325 325 324 324 323 323 322 321 320 320 320 319 319 319 318 318 317 317 317 317 318 318 319 318 318 318 318 318 318 317 317 316 316 315 315
347 344 341 338 335 333 331 330 329 329 329 329 329 329 330 330 330 330 330 330 330 330 330 330 329 329 328 328 327 327 326 326 325 325 324 323 323 322 322 321 320 320 319 319 319 318 318 318 318 318 318 318 318 319 319 319 318 317 317 316 316 316 316 316 315 315 315 314 313
340 337 334 332 331 329 328 328 328 328 329 329 329 330 330 330 330 331 331 331 330 330 329 329 328 328 327 326 325 325 325 325 324 324 323 322 321 321 321 320 320 319 319 318 318 318 317 317 317 318 318 319 319 319 319 318 317 316 315 315 315 315 315 314 314 314 314 313 311
334 332 331 329 328 328 327 328 328 329 329 329 329 329 330 330 330 330 330 330 329 328 328 327 326 326 325 324 324 323 323 323 323 322 322 321 321 320 320 319 319 318 318 317 317 317 317 317 317 318 318 319 319 319 318 316 315 315 315 315 315 315 314 314 313 313 313 312 311
331 330 328 327 327 327 327 328 329 329 330 330 329 329 329 330 329 329 329 328 327 326 326 325 324 324 323 323 322 322 322 322 322 321 321 320 320 319 319 318 318 317 316 316 316 316 316 316 316 317 318 318 319 318 317 316 315 316 317 317 316 315 315 314 313 312 312 311 311
Height
1447 1448 1449 1450 1451 1452 1452 1451 1452 1452 1453 1454 1455 1456 1458 1460 1460 1460 1462 1464 1465 1465 1465 1465 1466 1468 1468 1468 1468 1470 1472 1474 1476 1478 1479 1481 1481 1482 1483 1483 1484 1484 1484 1485 1485 1486 1486 1487 1487 1487 1488 1488 1488 1488 1488 1488 1488 1488 1488 1488 1488 1487 1487 1487 1487 1487 1486 1485 1485
1446 1446 1447 1448 1448 1449 1449 1449 1450 1451 1452 1453 1453 1454 1456 1456 1456 1457 1459 1460 1461 1462 1463 1464 1465 1466 1466 1467 1469 1472 1474 1476 1478 1479 1480 1481 1481 1482 1482 1483 1483 1484 1484 1484 1485 1485 1486 1486 1487 1487 1487 1487 1487 1487 1487 1487 1487 1487 1486 1486 1486 1486 1486 1486 1485 1485 1484 1484 1483
1445 1445 1445 1446 1447 1447 1448 1449 1450 1452 1453 1453 1454 1455 1455 1456 1457 1458 1460 1461 1462 1463 1464 1465 1465 1465 1466 1469 1472 1474 1476 1477 1478 1479 1480 1480 1481 1482 1482 1483 1483 1483 1483 1484 1484 1485 1485 1486 1486 1486 1486 1486 1487 1486 1486 1486 1486 1485 1485 1485 1485 1485 1484 1484 1484 1483 1483 1483 1482
1444 1444 1445 1445 1446 1447 1448 1449 1451 1452 1453 1453 1454 1455 1456 1457 1458 1460 1461 1463 1463 1464 1464 1465 1465 1466 1468 1471 1473 1475 1476 1477 1478 1478 1479 1480 1480 1481 1482 1482 1483 1483 1483 1484 1484 1484 1485 1485 1485 1485 1485 1485 1485 1485 1485 1485 1484 1484 1484 1484 1484 1483 1483 1483 1483 1482 1482 1481 1481
1444 1444 1444 1445 1446 1447 1448 1449 1451 1452 1453 1454 1455 1455 1457 1458 1460 1461 1462 1463 1463 1464 1464 1465 1466 1468 1470 1472 1474 1475 1476 1476 1477 1478 1479 1480 1480 1481 1481 1482 1482 1483 1483 1483 1483 1483 1483 1483 1484 1484 1484 1484 1484 1483 1483 1483 1483 1483 1483 1483 1482 1482 1482 1481 1481 1481 1480 1480 1479
1443 1444 1445 1446 1447 1448 1449 1450 1451 1452 1453 1455 1456 1457 1458 1459 1461 1462 1463 1463 1463 1464 1465 1466 1468 1469 1471 1472 1473 1474 1475 1476 1477 1478 1478 1479 1480 1480 1480 1481 1481 1481 1482 1482 1482 1482 1482 1482 1482 1482 1482 1482 1482 1482 1482 1481 1481 1481 1481 1481 1480 1480 1480 1479 1479 1479 1478 1478 1478
1443 1444 1446 1448 1449 1450 1451 1451 1452 1453 1454 1456 1457 1458 1459 1461 1462 1462 1463 1463 1464 1464 1466 1467 1468 1470 1471 1473 1474 1475 1476 1476 1477 1477 1478 1478 1479 1479 1480 1480 1480 1480 1481 1481 1481 1481 1481 1481 1481 1481 1481 1481 1480 1480 1480 1479 1479 1479 1479 1479 1479 1478 1478 1478 1478 1477 1477 1476 1476
1444 1445 1447 1449 1451 1453 1453 1453 1453 1454 1456 1457 1458 1459 1460 1461 1461 1462 1462 1463 1464 1465 1466 1468 1469 1471 1472 1473 1474 1475 1475 1476 1476 1477 1478 1478 1478 1478 1479 1479 1479 1479 1479 1480 1480 1480 1480 1480 1479 1479 1479 1479 1479 1478 1478 1478 1478 1477 1477 1477 1477 1477 1477 1477 1476 1476 1475 1475 1475
1445 1446 1448 1450 1453 1453 1454 1455 1455 1456 1457 1458 1459 1460 1460 1460 1461 1462 1463 1463 1465 1466 1468 1469 1470 1472 1473 1473 1474 1474 1475 1475 1476 1477 1477 1477 1478 1478 1478 1478 1478 1478 1478 1478 1478 1478 1478 1478 1478 1478 1478 1478 1477 1477 1477 1477 1476 1476 1476 1476 1475 1475 1475 1475 1474 1474 1474 1473 1473
1446 1448 1450 1451 1453 1454 1455 1455 1456 1457 1458 1458 1459 1460 1461 1461 1462 1463 1464 1465 1467 1468 1469 1470 1471 1472 1472 1473 1473 1474 1474 1475 1475 1476 1476 1476 1477 1477 1477 1477 1477 1477 1477 1477 1477 1477 1477 1477 1477 1477 1476 1476 1476 1476 1475 1475 1475 1475 1474 1474 1474 1473 1473 1473 1473 1473 1472 1471 1471
1448 1449 1450 1452 1453 1454 1455 1455 1456 1457 1458 1459 1460 1461 1462 1463 1464 1465 1466 1467 1468 1468 1469 1470 1470 1471 1472 1472 1473 1473 1474 1474 1474 1475 1475 1475 1476 1476 1476 1476 1476 1476 1476 1476 1476 1476 1476 1475 1475 1475 1475 1475 1474 1474 1474 1473 1473 1473 1473 1472 1472 1472 1472 1472 1471 1471 1470 1470 1469
1449 1450 1452 1453 1454 1455 1456 1456 1457 1458 1459 1460 1462 1463 1464 1465 1465 1466 1467 1467 1468 1468 1469 1469 1470 1471 1471 1472 1472 1473 1473 1473 1473 1474 1474 1474 1474 1475 1475 1475 1475 1475 1474 1474 1474 1474 1474 1474 1474 1473 1473 1473 1473 1472 1472 1472 1472 1471 1471 1471 1470 1470 1470 1469 1469 1469 1468 1468 1467
1451 1452 1453 1454 1456 1457 1458 1458 1459 1460 1462 1463 1463 1464 1465 1465 1466 1466 1467 1468 1468 1468 1469 1469 1470 1470 1471 1471 1472 1472 1472 1473 1473 1473 1473 1473 1473 1473 1473 1473 1473 1473 1473 1473 1473 1473 1473 1473 1472 1472 1472 1471 1471 1471 1470 1470 1470 1469 1469 1468 1468 1468 1468 1467 1467 1466 1466 1465 1465
1453 1454 1455 1456 1458 1458 1460 1460 1461 1462 1463 1463 1464 1464 1465 1465 1466 1466 1467 1467 1468 1468 1468 1469 1469 1470 1470 1471 1471 1471 1472 1472 1472 1472 1472 1472 1472 1472 1472 1472 1472 1472 1472 1472 1471 1471 1471 1471 1471 1470 1470 1470 1469 1469 1468 1468 1468 1467 1467 1467 1466 1466 1465 1465 1464 1464 1463 1463 1462
1455 1456 1457 1458 1459 1460 1461 1461 1462 1463 1463 1463 1464 1464 1465 1465 1466 1466 1467 1467 1468 1468 1468 1468 1469 1469 1470 1470 1470 1470 1471 1471 1471 1471 1471 1471 1471 1471 1471 1471 1471 1470 1470 1470 1470 1469 1469 1469 1469 1468 1468 1468 1467 1467 1467 1466 1466 1465 1465 1464 1464 1463 1463 1463 1462 1462 1461 1461 1460
1457 1458 1458 1459 1460 1461 1462 1462 1462 1463 1463 1464 1464 1464 1465 1465 1466 1466 1467 1467 1467 1468 1468 1468 1468 1468 1469 1469 1469 1469 1469 1470 1470 1470 1470 1470 1470 1470 1469 1469 1469 1469 1469 1468 1468 1468 1468 1467 1467 1467 1466 1466 1465 1465 1464 1464 1464 1463 1463 1463 1462 1462 1461 1461 1460 1460 1459 1458 1458
1458 1459 1460 1460 1461 1461 1462 1462 1463 1463 1463 1464 1464 1464 1465 1465 1466 1466 1466 1466 1467 1467 1467 1468 1468 1468 1468 1468 1468 1468 1468 1468 1468 1469 1469 1469 1468 1468 1468 1468 1468 1468 1468 1467 1467 1466 1466 1465 1465 1465 1464 1464 1463 1463 1463 1462 1462 1462 1461 1461 1460 1460 1459 1458 1458 1458 1457 1456 1456
1459 1459 1460 1461 1461 1461 1462 1462 1463 1463 1463 1463 1464 1464 1464 1465 1465 1465 1466 1466 1466 1466 1467 1467 1467 1467 1467 1467 1467 1467 1468 1468 1468 1468 1468 1468 1468 1468 1467 1467 1467 1467 1466 1466 1465 1465 1464 1464 1463 1463 1463 1463 1462 1462 1461 1461 1460 1460 1459 1459 1458 1458 1457 1457 1456 1455 1455 1454 1453
1459 1459 1460 1460 1461 1461 1461 1462 1462 1463 1463 1463 1463 1464 1464 1464 1465 1465 1465 1465 1466 1466 1466 1466 1466 1466 1467 1467 1467 1467 1467 1467 1467 1467 1467 1467 1467 1467 1467 1466 1466 1466 1465 1465 1464 1464 1463 1463 1462 1462 1462 1461 1461 1460 1460 1459 1459 1458 1458 1457 1457 1456 1456 1455 1454 1453 1453 1452 1451
1459 1459 1460 1460 1461 1461 1461 1462 1462 1462 1463 1463 1463 1463 1464 1464 1464 1465 1465 1465 1465 1465 1466 1466 1466 1466 1466 1466 1466 1466 1467 1467 1467 1467 1467 1467 1467 1467 1466 1466 1465 1465 1464 1464 1463 1463 1462 1462 1461 1461 1460 1459 1459 1458 1458 1458 1457 1456 1456 1455 1455 1454 1453 1453 1452 1452 1451 1450 1449
1459 1459 1460 1460 1461 1461 1462 1462 1462 1463 1463 1463 1463 1464 1464 1464 1465 1465 1465 1465 1465 1465 1466 1466 1466 1466 1466 1466 1466 1466 1467 1467 1467 1467 1467 1467 1466 1466 1465 1465 1464 1464 1463 1463 1462 1461 1461 1460 1459 1459 1458 1458 1457 1456 1456 1455 1455 1454 1454 1453 1453 1452 1452 1451 1450 1449 1449 1448 1447
1459 1460 1460 1461 1461 1462 1462 1462 1463 1463 1463 1463 1464 1464 1464 1464 1465 1465 1465 1465 1465 1465 1466 1466 1466 1466 1466 1466 1467 1467 1467 1467 1467 1467 1466 1466 1465 1465 1464 1463 1463 1462 1462 1461 1460 1460 1459 1458 1458 1457 1456 1455 1455 1454 1453 1453 1452 1452 1451 1451 1450 1450 1449 1448 1448 1447 1446 1445 1445
1460 1460 1461 1461 1462 1462 1462 1463 1463 1463 1463 1464 1464 1464 1464 1465 1465 1465 1465 1465 1465 1466 1466 1466 1466 1466 1466 1467 1467 1467 1467 1466 1466 1466 1465 1464 1464 1463 1463 1462 1461 1460 1460 1459 1458 1458 1457 1456 1455 1454 1453 1453 1452 1451 1451 1450 1449 1448 1448 1448 1447 1447 1446 1445 1445 1444 1443 1443 1442
1460 1461 1461 1462 1462 1462 1463 1463 1463 1464 1464 1464 1464 1464 1465 1465 1465 1465 1465 1465 1466 1466 1466 1466 1466 1466 1466 1466 1466 1466 1466 1465 1465 1464 1464 1463 1462 1462 1461 1460 1459 1458 1458 1457 1456 1455 1454 1453 1453 1452 1451 1450 1449 1448 1448 1447 1446 1445 1445 1444 1443 1443 1443 1442 1442 1441 1440 1440 1439
1461 1461 1462 1462 1463 1463 1463 1464 1464 1464 1464 1464 1465 1465 1465 1465 1465 1465 1465 1466 1466 1466 1466 1466 1466 1466 1466 1465 1465 1465 1464 1464 1463 1463 1462 1461 1461 1460 1459 1458 1457 1456 1455 1455 1454 1453 1452 1451 1450 1449 1448 1447 1446 1445 1444 1444 1443 1442 1442 1441 1440 1439 1439 1438 1438 1438 1437 1437 1436
1462 1462 1463 1463 1463 1464 1464 1464 1464 1465 1465 1465 1465 1465 1465 1466 1466 1466 1466 1466 1466 1466 1466 1466 1465 1465 1465 1464 1464 1463 1463 1462 1461 1461 1460 1459 1458 1457 1457 1456 1455 1454 1453 1452 1451 1451 1450 1448 1448 1446 1445 1444 1443 1443 1442 1441 1441 1440 1439 1438 1438 1437 1436 1435 1435 1434 1434 1433 1433
1463 1463 1463 1464 1464 1465 1465 1465 1465 1465 1466 1466 1466 1466 1466 1466 1466 1466 1466 1466 1466 1466 1465 1465 1465 1464 1464 1463 1462 1462 1461 1460 1459 1458 1457 1456 1455 1455 1454 1453 1452 1451 1450 1450 1449 1448 1448 1447 1446 1444 1443 1442 1441 1440 1440 1439 1438 1438 1437 1436 1436 1435 1434 1433 1432 1432 1431 1431 1430
1464 1465 1465 1466 1466 1466 1466 1466 1467 1467 1467 1467 1467 1467 1467 1466 1466 1466 1466 1466 1465 1465 1464 1464 1463 1462 1462 1461 1460 1459 1458 1457 1456 1455 1454 1454 1453 1452 1451 1451 1450 1449 1448 1448 1447 1446 1446 1445 1444 1443 1442 1440 1439 1438 1438 1437 1436 1435 1435 1434 1433 1433 1432 1431 1430 1429 1428 1428 1427
1466 1466 1467 1467 1467 1467 1467 1467 1467 1467 1467 1467 1467 1466 1466 1466 1465 1465 1464 1464 1463 1463 1462 1461 1460 1459 1459 1458 1457 1456 1455 1454 1453 1453 1452 1452 1451 1450 1450 1449 1448 1448 1447 1446 1445 1445 1444 1443 1442 1441 1440 1439 1437 1436 1435 1434 1433 1433 1432 1431 1431 1430 1429 1428 1427 1426 1425 1424 1423
1467 1467 1467 1467 1467 1467 1467 1467 1467 1466 1466 1466 1465 1465 1464 1464 1463 1463 1462 1461 1461 1460 1459 1458 1458 1457 1456 1455 1454 1454 1453 1452 1452 1451 1451 1450 1450 1449 1448 1448 1447 1446 1445 1445 1444 1443 1442 1441 1440 1439 1438 1437 1435 1434 1433 1432 1431 1430 1429 1428 1428 1427 1426 1425 1424 1423 1422 1421 1420
1467 1467 1467 1467 1466 1466 1466 1465 1465 1464 1464 1463 1463 1462 1462 1461 1460 1460 1459 1458 1458 1457 1456 1456 1455 1455 1454 1453 1453 1452 1452 1451 1450 1450 1449 1448 1448 1448 1447 1446 1445 1444 1443 1443 1442 1441 1440 1439 1438 1437 1435 1434 1433 1431 1430 1429 1428 1427 1426 1425 1425 1424 1423 1422 1421 1420 1419 1418 1417
1466 1465 1465 1465 1464 1464 1463 1463 1463 1462 1461 1461 1460 1460 1459 1458 1458 1457 1457 1456 1456 1455 1455 1454 1454 1453 1453 1452 1452 1451 1450 1449 1449 1448 1448 1447 1446 1446 1445 1444 1443 1442 1441 1440 1439 1438 1438 1436 1435 1434 1433 1431 1430 1429 1428 1427 1425 1424 1423 1423 1422 1421 1420 1419 1418 1417 1416 1415 1414
1464 1464 1463 1463 1463 1462 1461 1461 1460 1460 1459 1459 1458 1458 1458 1457 1457 1456 1456 1455 1455 1454 1454 1453 1453 1452 1451 1451 1450 1449 1448 1448 1447 1446 1446 1445 1444 1443 1443 1442 1441 1440 1439 1438 1437 1436 1435 1434 1433 1431 1430 1429 1428 1426 1425 1424 1423 1422 1421 1420 1419 1418 1417 1416 1415 1414 1413 1412 1411
1463 1462 1462 1461 1460 1460 1459 1459 1458 1458 1458 1458 1457 1457 1457 1456 1456 1455 1455 1454 1454 1453 1453 1452 1451 1451 1450 1449 1448 1448 1447 1446 1445 1444 1443 1443 1442 1441 1441 1440 1438 1437 1436 1435 1434 1433 1433 1431 1430 1429 1428 1426 1425 1424 1423 1422 1420 1419 1418 1417 1416 1415 1414 1413 1413 1412 1411 1410 1409
1461 1460 1460 1459 1459 1459 1458 1458 1458 1458 1458 1457 1457 1457 1456 1456 1455 1454 1454 1453 1453 1452 1451 1451 1450 1449 1448 1447 1447 1446 1445 1444 1443 1442 1441 1440 1440 1439 1438 1438 1437 1435 1434 1433 1432 1431 1430 1429 1428 1427 1425 1424 1423 1421 1420 1419 1418 1417 1416 1415 1413 1413 1412 1411 1410 1409 1408 1407 1406
1460 1459 1459 1459 1458 1458 1458 1458 1458 1458 1457 1457 1456 1456 1455 1454 1454 1453 1453 1452 1451 1451 1450 1449 1448 1447 1447 1446 1445 1444 1443 1442 1441 1440 1439 1438 1438 1437 1436 1436 1435 1434 1433 1431 1430 1429 1428 1427 1426 1425 1423 1422 1420 1419 1418 1416 1415 1414 1413 1412 1411 1410 1409 1408 1408 1407 1406 1405 1404
1459 1459 1459 1459 1458 1458 1458 1458 1457 1457 1456 1456 1455 1454 1454 1453 1453 1452 1451 1450 1449 1449 1448 1447 1446 1445 1444 1444 1443 1442 1441 1440 1439 1438 1438 1437 1436 1435 1434 1433 1433 1432 1431 1430 1428 1427 1426 1425 1424 1423 1421 1419 1418 1416 1415 1414 1413 1412 1410 1409 1408 1408 1407 1406 1405 1404 1403 1403 1402
1459 1459 1459 1459 1458 1458 1458 1457 1456 1456 1455 1454 1453 1453 1452 1452 1451 1450 1449 1448 1448 1447 1446 1445 1444 1443 1443 1442 1441 1440 1439 1438 1437 1437 1436 1435 1434 1433 1432 1431 1431 1430 1429 1428 1427 1425 1424 1423 1422 1420 1419 1417 1416 1414 1413 1412 1411 1409 1408 1407 1406 1405 1404 1404 1403 1402 1401 1400 1400
1459 1459 1459 1458 1458 1457 1457 1456 1455 1454 1453 1453 1452 1451 1450 1450 1449 1448 1447 1446 1446 1445 1444 1443 1443 1442 1441 1440 1439 1438 1438 1437 1436 1435 1434 1433 1432 1431 1430 1429 1428 1428 1427 1426 1424 1423 1422 1421 1420 1418 1417 1415 1414 1413 1411 1410 1408 1407 1406 1405 1404 1403 1402 1401 1401 1400 1398 1398 1397
1459 1458 1458 1458 1457 1456 1455 1454 1454 1453 1452 1451 1450 1449 1449 1448 1447 1446 1445 1445 1444 1443 1442 1442 1441 1440 1439 1438 1437 1437 1436 1435 1434 1433 1432 1431 1430 1429 1428 1427 1426 1425 1424 1423 1422 1421 1420 1419 1418 1416 1415 1413 1412 1411 1409 1408 1407 1405 1404 1403 1402 1401 1399 1399 1398 1397 1396 1395 1394
1458 1458 1457 1456 1455 1455 1454 1453 1452 1452 1451 1450 1449 1448 1447 1446 1445 1445 1444 1443 1442 1441 1441 1440 1439 1438 1437 1436 1435 1434 1434 1433 1433 1431 1430 1429 1428 1427 1426 1425 1423 1423 1422 1421 1420 1419 1418 1417 1416 1414 1413 1412 1411 1409 1408 1406 1405 1403 1402 1401 1400 1399 1397 1396 1395 1394 1394 1393 1392